User: anonymous   Login
Location: Bow
(51.5261°N, 0.0167°W)
Time: 10:26:39
(UTC+00:00)
Language:

NOSS 3-4 (C) - Orbit

View from above orbital plane
View from above orbital plane
View from above satellite
View from above satellite

Ground track
Ground track

The orbit data is extracted from the following two-line orbital elements,

1 31708U 07027C   20333.11297127 0.00000000  00000-0  00000-0 0    09
2 31708  63.3984 109.5012 0296455  19.9687 340.0313 13.40809124    09
Epoch (UTC): 28 November 2020 02:42:40
Eccentricity: 0.0296455
inclination: 63.3984°
perigee height: 884 km
apogee height: 1328 km
right ascension of ascending node: 109.5012°
argument of perigee: 19.9687°
revolutions per day: 13.40809124
mean anomaly at epoch: 340.0313°
orbit number at epoch: 0

The dashed part of the orbit path shows where the satellite is in the earth's shadow,  

DLR